Time,TemperatureF,DewpointF,PressureIn,WindDirection,WindDirectionDegrees,WindSpeedMPH,WindSpeedGustMPH,Humidity,HourlyPrecipIn,Conditions,Clouds,dailyrainin,SoftwareType,DateUTC
2013-04-30 00:00:00,58.6,55.4,29.83,South,171,2.0,4.0,89,0.00,,CLR,0.00,VWS V14.00,2013-04-30 05:00:00,
2013-04-30 00:01:00,58.6,55.4,29.83,South,171,2.0,5.0,89,0.00,,CLR,0.00,VWS V14.00,2013-04-30 05:01:00,
2013-04-30 00:05:00,58.7,55.5,29.83,South,171,4.0,5.0,89,0.00,,CLR,0.00,VWS V14.00,2013-04-30 05:05:00,
2013-04-30 00:10:00,58.7,55.5,29.84,South,171,2.0,5.0,89,0.00,,CLR,0.00,VWS V14.00,2013-04-30 05:10:00,
2013-04-30 00:15:00,58.7,55.5,29.83,South,171,1.0,5.0,89,0.00,,CLR,0.00,VWS V14.00,2013-04-30 05:15:00,
2013-04-30 00:20:00,58.8,55.6,29.83,South,171,4.0,5.0,89,0.00,,CLR,0.00,VWS V14.00,2013-04-30 05:20:00,
2013-04-30 00:25:00,58.9,55.7,29.83,South,171,2.0,4.0,89,0.00,,CLR,0.00,VWS V14.00,2013-04-30 05:25:00,
2013-04-30 00:30:00,58.9,55.7,29.83,South,171,0.0,5.0,89,0.00,,CLR,0.00,VWS V14.00,2013-04-30 05:30:00,
2013-04-30 00:35:00,58.9,55.7,29.83,South,171,1.0,5.0,89,0.00,,CLR,0.00,VWS V14.00,2013-04-30 05:35:00,
2013-04-30 00:40:00,58.9,55.7,29.83,South,171,1.0,5.0,89,0.00,,CLR,0.00,VWS V14.00,2013-04-30 05:40:00,
2013-04-30 00:45:00,59.0,55.8,29.83,South,171,2.0,5.0,89,0.00,,CLR,0.00,VWS V14.00,2013-04-30 05:45:00,
2013-04-30 00:50:00,59.0,55.8,29.83,South,172,4.0,5.0,89,0.00,,CLR,0.00,VWS V14.00,2013-04-30 05:50:00,
2013-04-30 00:55:00,59.0,55.8,29.83,South,178,2.0,5.0,89,0.00,,CLR,0.00,VWS V14.00,2013-04-30 05:55:00,
2013-04-30 01:00:00,59.0,55.8,29.83,South,176,4.0,5.0,89,0.00,,CLR,0.00,VWS V14.00,2013-04-30 06:00:00,
2013-04-30 01:05:00,59.0,55.8,29.83,South,175,1.0,5.0,89,0.00,,CLR,0.00,VWS V14.00,2013-04-30 06:05:00,
2013-04-30 01:10:00,59.1,55.9,29.83,South,178,2.0,6.0,89,0.00,,CLR,0.00,VWS V14.00,2013-04-30 06:10:00,
2013-04-30 01:15:00,59.1,55.9,29.83,South,178,4.0,6.0,89,0.00,,CLR,0.00,VWS V14.00,2013-04-30 06:15:00,
2013-04-30 01:20:00,59.0,55.8,29.83,South,178,1.0,6.0,89,0.00,,CLR,0.00,VWS V14.00,2013-04-30 06:20:00,
2013-04-30 01:25:00,58.9,55.7,29.83,South,178,2.0,5.0,89,0.00,,CLR,0.00,VWS V14.00,2013-04-30 06:25:00,
2013-04-30 01:30:00,58.8,55.6,29.83,South,178,1.0,5.0,89,0.00,,CLR,0.00,VWS V14.00,2013-04-30 06:30:00,
2013-04-30 01:35:00,58.7,55.5,29.83,South,178,1.0,5.0,89,0.00,,CLR,0.00,VWS V14.00,2013-04-30 06:35:00,
2013-04-30 01:40:00,58.6,55.4,29.83,South,178,2.0,5.0,89,0.00,,CLR,0.00,VWS V14.00,2013-04-30 06:40:00,
2013-04-30 01:45:00,58.5,55.3,29.83,South,178,2.0,5.0,89,0.00,,CLR,0.00,VWS V14.00,2013-04-30 06:45:00,
2013-04-30 01:50:00,58.4,55.2,29.83,South,178,1.0,5.0,89,0.00,,CLR,0.00,VWS V14.00,2013-04-30 06:50:00,
2013-04-30 01:55:00,58.4,55.2,29.83,South,178,1.0,5.0,89,0.00,,CLR,0.00,VWS V14.00,2013-04-30 06:55:00,
2013-04-30 02:00:00,58.3,55.1,29.83,South,178,1.0,5.0,89,0.00,,CLR,0.00,VWS V14.00,2013-04-30 07:00:00,
2013-04-30 02:05:00,58.2,55.0,29.83,South,178,2.0,5.0,89,0.00,,CLR,0.00,VWS V14.00,2013-04-30 07:05:00,
2013-04-30 02:10:00,58.2,55.3,29.83,South,178,2.0,5.0,90,0.00,,CLR,0.00,VWS V14.00,2013-04-30 07:10:00,
2013-04-30 02:15:00,58.2,55.0,29.83,South,178,1.0,5.0,89,0.00,,CLR,0.00,VWS V14.00,2013-04-30 07:15:00,
2013-04-30 02:20:00,58.1,54.9,29.83,South,177,1.0,5.0,89,0.00,,CLR,0.00,VWS V14.00,2013-04-30 07:20:00,
2013-04-30 02:25:00,58.1,55.2,29.83,South,177,2.0,4.0,90,0.00,,CLR,0.00,VWS V14.00,2013-04-30 07:25:00,
2013-04-30 02:30:00,58.1,55.2,29.82,South,184,3.0,5.0,90,0.00,,CLR,0.00,VWS V14.00,2013-04-30 07:30:00,
2013-04-30 02:35:00,58.1,55.2,29.82,South,184,3.0,5.0,90,0.00,,CLR,0.00,VWS V14.00,2013-04-30 07:35:00,
2013-04-30 02:40:00,58.1,54.9,29.82,South,184,2.0,5.0,89,0.00,,CLR,0.00,VWS V14.00,2013-04-30 07:40:00,
2013-04-30 02:45:00,58.0,55.1,29.82,South,184,3.0,5.0,90,0.00,,CLR,0.00,VWS V14.00,2013-04-30 07:45:00,
2013-04-30 02:50:00,58.0,54.8,29.82,South,184,1.0,5.0,89,0.00,,CLR,0.00,VWS V14.00,2013-04-30 07:50:00,
2013-04-30 02:55:00,57.9,54.7,29.82,South,184,2.0,4.0,89,0.00,,CLR,0.00,VWS V14.00,2013-04-30 07:55:00,
2013-04-30 03:00:00,57.9,55.0,29.82,South,184,3.0,4.0,90,0.00,,CLR,0.00,VWS V14.00,2013-04-30 08:00:00,
2013-04-30 03:05:00,57.9,55.0,29.82,South,184,1.0,4.0,90,0.00,,CLR,0.00,VWS V14.00,2013-04-30 08:05:00,
2013-04-30 03:10:00,57.9,55.0,29.82,South,184,3.0,4.0,90,0.00,,CLR,0.00,VWS V14.00,2013-04-30 08:10:00,
2013-04-30 03:15:00,57.9,55.0,29.82,South,184,1.0,4.0,90,0.00,,CLR,0.00,VWS V14.00,2013-04-30 08:15:00,
2013-04-30 03:20:00,57.9,55.0,29.82,South,182,2.0,4.0,90,0.00,,CLR,0.00,VWS V14.00,2013-04-30 08:20:00,
2013-04-30 03:25:00,57.9,55.0,29.82,South,182,4.0,4.0,90,0.00,,CLR,0.00,VWS V14.00,2013-04-30 08:25:00,
2013-04-30 03:30:00,57.9,54.7,29.82,SSW,196,3.0,4.0,89,0.00,,CLR,0.00,VWS V14.00,2013-04-30 08:30:00,
2013-04-30 03:35:00,57.9,54.7,29.83,SSW,196,1.0,4.0,89,0.00,,CLR,0.00,VWS V14.00,2013-04-30 08:35:00,
2013-04-30 03:40:00,57.8,54.6,29.83,South,173,1.0,6.0,89,0.00,,CLR,0.00,VWS V14.00,2013-04-30 08:40:00,
2013-04-30 03:45:00,57.8,54.6,29.83,South,173,1.0,6.0,89,0.00,,CLR,0.00,VWS V14.00,2013-04-30 08:45:00,
2013-04-30 03:50:00,57.8,54.6,29.83,South,173,4.0,6.0,89,0.00,,CLR,0.00,VWS V14.00,2013-04-30 08:50:00,
2013-04-30 03:55:00,57.8,54.6,29.83,South,173,2.0,4.0,89,0.00,,CLR,0.00,VWS V14.00,2013-04-30 08:55:00,
2013-04-30 04:00:00,57.8,54.6,29.83,South,173,1.0,4.0,89,0.00,,CLR,0.00,VWS V14.00,2013-04-30 09:00:00,
2013-04-30 04:05:00,57.8,54.6,29.83,South,173,1.0,4.0,89,0.00,,CLR,0.00,VWS V14.00,2013-04-30 09:05:00,
2013-04-30 04:10:00,57.7,54.5,29.83,South,173,0.0,4.0,89,0.00,,CLR,0.00,VWS V14.00,2013-04-30 09:10:00,
2013-04-30 04:15:00,57.6,54.7,29.83,South,173,2.0,4.0,90,0.00,,CLR,0.00,VWS V14.00,2013-04-30 09:15:00,
2013-04-30 04:20:00,57.5,54.3,29.83,South,173,0.0,4.0,89,0.00,,CLR,0.00,VWS V14.00,2013-04-30 09:20:00,
2013-04-30 04:25:00,57.4,54.5,29.83,South,173,1.0,4.0,90,0.00,,CLR,0.00,VWS V14.00,2013-04-30 09:25:00,
2013-04-30 04:30:00,57.2,54.3,29.83,South,173,1.0,4.0,90,0.00,,CLR,0.00,VWS V14.00,2013-04-30 09:30:00,
2013-04-30 04:35:00,57.1,54.2,29.83,South,173,4.0,4.0,90,0.00,,CLR,0.00,VWS V14.00,2013-04-30 09:35:00,
2013-04-30 04:40:00,56.9,54.0,29.83,South,173,1.0,4.0,90,0.00,,CLR,0.00,VWS V14.00,2013-04-30 09:40:00,
2013-04-30 04:45:00,56.7,53.8,29.83,South,173,0.0,4.0,90,0.00,,CLR,0.00,VWS V14.00,2013-04-30 09:45:00,
2013-04-30 04:50:00,56.6,53.7,29.83,South,173,2.0,4.0,90,0.00,,CLR,0.00,VWS V14.00,2013-04-30 09:50:00,
2013-04-30 04:55:00,56.5,53.9,29.83,South,173,1.0,4.0,91,0.00,,CLR,0.00,VWS V14.00,2013-04-30 09:55:00,
2013-04-30 05:00:00,56.5,53.9,29.83,South,173,0.0,4.0,91,0.00,,CLR,0.00,VWS V14.00,2013-04-30 10:00:00,
2013-04-30 05:05:00,56.4,53.8,29.83,South,173,0.0,4.0,91,0.00,,CLR,0.00,VWS V14.00,2013-04-30 10:05:00,
2013-04-30 05:10:00,56.4,53.8,29.83,South,173,0.0,4.0,91,0.00,,CLR,0.00,VWS V14.00,2013-04-30 10:10:00,
2013-04-30 05:15:00,56.3,53.7,29.84,South,173,0.0,4.0,91,0.00,,CLR,0.00,VWS V14.00,2013-04-30 10:15:00,
2013-04-30 05:20:00,56.2,53.6,29.84,South,173,0.0,4.0,91,0.00,,CLR,0.00,VWS V14.00,2013-04-30 10:20:00,
2013-04-30 05:25:00,56.1,53.5,29.84,South,173,1.0,4.0,91,0.00,,CLR,0.00,VWS V14.00,2013-04-30 10:25:00,
2013-04-30 05:30:00,56.0,53.4,29.84,South,173,0.0,4.0,91,0.00,,CLR,0.00,VWS V14.00,2013-04-30 10:30:00,
2013-04-30 05:35:00,56.0,53.4,29.84,South,173,0.0,4.0,91,0.00,,CLR,0.00,VWS V14.00,2013-04-30 10:35:00,
2013-04-30 05:40:00,55.9,53.3,29.84,SSW,192,1.0,4.0,91,0.00,,CLR,0.00,VWS V14.00,2013-04-30 10:40:00,
2013-04-30 05:45:00,55.9,53.3,29.84,SSW,192,0.0,4.0,91,0.00,,CLR,0.00,VWS V14.00,2013-04-30 10:45:00,
2013-04-30 05:50:00,55.8,53.2,29.85,SSW,192,1.0,4.0,91,0.00,,CLR,0.00,VWS V14.00,2013-04-30 10:50:00,
2013-04-30 05:55:00,55.7,53.1,29.84,SSW,192,0.0,2.0,91,0.00,,CLR,0.00,VWS V14.00,2013-04-30 10:55:00,
2013-04-30 06:00:00,55.6,53.0,29.85,SSW,192,2.0,2.0,91,0.00,,CLR,0.00,VWS V14.00,2013-04-30 11:00:00,
2013-04-30 06:05:00,55.6,53.0,29.84,SSW,192,1.0,3.0,91,0.00,,CLR,0.00,VWS V14.00,2013-04-30 11:05:00,
2013-04-30 06:10:00,55.7,53.4,29.85,SSW,192,2.0,3.0,92,0.00,,CLR,0.00,VWS V14.00,2013-04-30 11:10:00,
2013-04-30 06:15:00,55.9,53.3,29.85,SSW,192,0.0,3.0,91,0.00,,CLR,0.00,VWS V14.00,2013-04-30 11:15:00,
2013-04-30 06:20:00,56.1,53.8,29.85,SSW,192,0.0,4.0,92,0.00,,CLR,0.00,VWS V14.00,2013-04-30 11:20:00,
2013-04-30 06:25:00,56.2,53.6,29.85,SSW,192,1.0,2.0,91,0.00,,CLR,0.00,VWS V14.00,2013-04-30 11:25:00,
2013-04-30 06:30:00,56.2,53.6,29.86,South,178,1.0,2.0,91,0.00,,CLR,0.00,VWS V14.00,2013-04-30 11:30:00,
2013-04-30 06:35:00,56.3,53.7,29.86,South,178,0.0,2.0,91,0.00,,CLR,0.00,VWS V14.00,2013-04-30 11:35:00,
2013-04-30 06:40:00,56.4,53.8,29.86,South,178,1.0,4.0,91,0.00,,CLR,0.00,VWS V14.00,2013-04-30 11:40:00,
2013-04-30 06:45:00,56.5,53.9,29.86,South,178,0.0,4.0,91,0.00,,CLR,0.00,VWS V14.00,2013-04-30 11:45:00,
2013-04-30 06:50:00,56.6,54.0,29.86,South,178,2.0,4.0,91,0.00,,CLR,0.00,VWS V14.00,2013-04-30 11:50:00,
2013-04-30 06:55:00,56.8,54.2,29.86,South,178,0.0,4.0,91,0.00,,CLR,0.00,VWS V14.00,2013-04-30 11:55:00,
2013-04-30 06:59:00,57.1,54.5,29.86,South,178,1.0,4.0,91,0.00,,CLR,0.00,VWS V14.00,2013-04-30 11:59:00,
2013-04-30 07:00:00,56.6,54.0,29.86,South,178,2.0,4.0,91,0.00,,CLR,0.00,VWS V14.00,2013-04-30 12:00:00,
2013-04-30 07:04:00,57.6,55.0,29.87,South,178,1.0,4.0,91,0.00,,CLR,0.00,VWS V14.00,2013-04-30 12:04:00,
2013-04-30 07:09:00,58.0,55.1,29.87,South,173,1.0,4.0,90,0.00,,CLR,0.00,VWS V14.00,2013-04-30 12:09:00,
2013-04-30 07:14:00,58.6,55.4,29.87,South,175,1.0,4.0,89,0.00,,CLR,0.00,VWS V14.00,2013-04-30 12:14:00,
2013-04-30 07:19:00,59.1,55.5,29.87,South,175,1.0,5.0,88,0.00,,CLR,0.00,VWS V14.00,2013-04-30 12:19:00,
2013-04-30 07:24:00,59.6,56.0,29.87,South,175,4.0,4.0,88,0.00,,CLR,0.00,VWS V14.00,2013-04-30 12:24:00,
2013-04-30 07:29:00,60.1,56.5,29.87,SSW,193,3.0,5.0,88,0.00,,CLR,0.00,VWS V14.00,2013-04-30 12:29:00,
2013-04-30 07:30:00,59.3,55.8,29.87,South,175,4.0,5.0,88,0.00,,CLR,0.00,VWS V14.00,2013-04-30 12:30:00,
2013-04-30 07:34:00,60.6,56.4,29.87,SE,140,2.0,5.0,86,0.00,,CLR,0.00,VWS V14.00,2013-04-30 12:34:00,
2013-04-30 07:39:00,61.1,56.9,29.88,SSE,149,1.0,5.0,86,0.00,,CLR,0.00,VWS V14.00,2013-04-30 12:39:00,
2013-04-30 07:44:00,61.6,57.0,29.88,South,178,1.0,6.0,85,0.00,,CLR,0.00,VWS V14.00,2013-04-30 12:44:00,
2013-04-30 07:49:00,62.1,57.2,29.88,South,178,2.0,6.0,84,0.00,,CLR,0.00,VWS V14.00,2013-04-30 12:49:00,
2013-04-30 07:54:00,62.6,57.4,29.88,South,183,3.0,4.0,83,0.00,,CLR,0.00,VWS V14.00,2013-04-30 12:54:00,
2013-04-30 07:59:00,62.9,57.7,29.88,SSW,195,0.0,4.0,83,0.00,,CLR,0.00,VWS V14.00,2013-04-30 12:59:00,
2013-04-30 08:00:00,62.3,57.4,29.88,South,178,4.0,6.0,84,0.00,,CLR,0.00,VWS V14.00,2013-04-30 13:00:00,
2013-04-30 08:04:00,63.3,58.1,29.88,SSW,193,1.0,4.0,83,0.00,,CLR,0.00,VWS V14.00,2013-04-30 13:04:00,
2013-04-30 08:09:00,63.7,58.5,29.88,South,170,2.0,5.0,83,0.00,,CLR,0.00,VWS V14.00,2013-04-30 13:09:00,
2013-04-30 08:14:00,64.1,58.5,29.88,NNW,342,1.0,5.0,82,0.00,,CLR,0.00,VWS V14.00,2013-04-30 13:14:00,
2013-04-30 08:19:00,64.6,58.7,29.88,East,82,1.0,5.0,81,0.00,,CLR,0.00,VWS V14.00,2013-04-30 13:19:00,
2013-04-30 08:24:00,65.3,59.3,29.89,ESE,121,0.0,5.0,81,0.00,,CLR,0.00,VWS V14.00,2013-04-30 13:24:00,
2013-04-30 08:29:00,66.1,59.4,29.89,SSW,209,1.0,5.0,79,0.00,,CLR,0.00,VWS V14.00,2013-04-30 13:29:00,
2013-04-30 08:30:00,64.8,59.2,29.89,East,82,2.0,5.0,82,0.00,,CLR,0.00,VWS V14.00,2013-04-30 13:30:00,
2013-04-30 08:34:00,66.8,59.4,29.89,SSW,209,1.0,5.0,77,0.00,,CLR,0.00,VWS V14.00,2013-04-30 13:34:00,
2013-04-30 08:39:00,67.4,60.0,29.89,SW,226,2.0,5.0,77,0.00,,CLR,0.00,VWS V14.00,2013-04-30 13:39:00,
2013-04-30 08:44:00,68.0,60.2,29.89,South,187,0.0,5.0,76,0.00,,CLR,0.00,VWS V14.00,2013-04-30 13:44:00,
2013-04-30 08:49:00,68.6,60.0,29.89,South,182,1.0,5.0,74,0.00,,CLR,0.00,VWS V14.00,2013-04-30 13:49:00,
2013-04-30 08:54:00,69.1,60.5,29.89,SE,143,1.0,4.0,74,0.00,,CLR,0.00,VWS V14.00,2013-04-30 13:54:00,
2013-04-30 08:59:00,69.5,60.9,29.89,South,172,4.0,6.0,74,0.00,,CLR,0.00,VWS V14.00,2013-04-30 13:59:00,
2013-04-30 09:00:00,68.8,60.6,29.89,ESE,121,1.0,5.0,75,0.00,,CLR,0.00,VWS V14.00,2013-04-30 14:00:00,
2013-04-30 09:04:00,69.8,59.6,29.89,SSE,164,2.0,9.0,70,0.00,,CLR,0.00,VWS V14.00,2013-04-30 14:04:00,
2013-04-30 09:09:00,70.0,61.3,29.89,South,173,4.0,9.0,74,0.00,,CLR,0.00,VWS V14.00,2013-04-30 14:09:00,
2013-04-30 09:14:00,70.4,60.2,29.88,SSE,165,0.0,9.0,70,0.00,,CLR,0.00,VWS V14.00,2013-04-30 14:14:00,
2013-04-30 09:19:00,70.8,62.1,29.88,SW,219,1.0,9.0,74,0.00,,CLR,0.00,VWS V14.00,2013-04-30 14:19:00,
2013-04-30 09:24:00,71.3,61.4,29.89,SW,214,2.0,3.0,71,0.00,,CLR,0.00,VWS V14.00,2013-04-30 14:24:00,
2013-04-30 09:29:00,71.5,61.6,29.89,SW,219,3.0,5.0,71,0.00,,CLR,0.00,VWS V14.00,2013-04-30 14:29:00,
2013-04-30 09:30:00,71.0,61.1,29.89,SW,218,0.0,9.0,71,0.00,,CLR,0.00,VWS V14.00,2013-04-30 14:30:00,
2013-04-30 09:34:00,71.7,61.0,29.89,SSW,207,1.0,6.0,69,0.00,,CLR,0.00,VWS V14.00,2013-04-30 14:34:00,
2013-04-30 09:39:00,72.1,60.1,29.89,South,175,1.0,6.0,66,0.00,,CLR,0.00,VWS V14.00,2013-04-30 14:39:00,
2013-04-30 09:44:00,72.4,61.2,29.89,South,173,5.0,6.0,68,0.00,,CLR,0.00,VWS V14.00,2013-04-30 14:44:00,
2013-04-30 09:49:00,72.7,61.1,29.89,SSW,209,3.0,6.0,67,0.00,,CLR,0.00,VWS V14.00,2013-04-30 14:49:00,
2013-04-30 09:54:00,73.0,60.5,29.89,SW,234,2.0,3.0,65,0.00,,CLR,0.00,VWS V14.00,2013-04-30 14:54:00,
2013-04-30 09:59:00,73.5,61.9,29.89,SSW,196,2.0,4.0,67,0.00,,CLR,0.00,VWS V14.00,2013-04-30 14:59:00,
2013-04-30 10:00:00,72.8,61.2,29.89,SW,235,3.0,6.0,67,0.00,,CLR,0.00,VWS V14.00,2013-04-30 15:00:00,
2013-04-30 10:04:00,73.7,62.1,29.89,WSW,248,2.0,5.0,67,0.00,,CLR,0.00,VWS V14.00,2013-04-30 15:04:00,
2013-04-30 10:09:00,74.0,62.4,29.89,SW,229,2.0,5.0,67,0.00,,CLR,0.00,VWS V14.00,2013-04-30 15:09:00,
2013-04-30 10:14:00,74.3,61.8,29.89,SW,228,0.0,5.0,65,0.00,,CLR,0.00,VWS V14.00,2013-04-30 15:14:00,
2013-04-30 10:19:00,74.5,63.7,29.89,SW,227,3.0,5.0,69,0.00,,CLR,0.00,VWS V14.00,2013-04-30 15:19:00,
2013-04-30 10:24:00,74.7,62.2,29.89,SSW,197,1.0,4.0,65,0.00,,CLR,0.00,VWS V14.00,2013-04-30 15:24:00,
2013-04-30 10:29:00,75.0,62.5,29.89,South,186,2.0,5.0,65,0.00,,CLR,0.00,VWS V14.00,2013-04-30 15:29:00,
2013-04-30 10:30:00,74.6,62.1,29.89,SSW,203,2.0,5.0,65,0.00,,CLR,0.00,VWS V14.00,2013-04-30 15:30:00,
2013-04-30 10:34:00,75.2,63.5,29.89,South,186,1.0,5.0,67,0.00,,CLR,0.00,VWS V14.00,2013-04-30 15:34:00,
2013-04-30 10:39:00,75.7,63.5,29.89,South,188,2.0,6.0,66,0.00,,CLR,0.00,VWS V14.00,2013-04-30 15:39:00,
2013-04-30 10:44:00,76.2,63.6,29.89,South,170,4.0,7.0,65,0.00,,CLR,0.00,VWS V14.00,2013-04-30 15:44:00,
2013-04-30 10:49:00,76.5,64.3,29.89,SSW,213,2.0,7.0,66,0.00,,CLR,0.00,VWS V14.00,2013-04-30 15:49:00,
2013-04-30 10:54:00,76.9,63.4,29.88,South,188,1.0,5.0,63,0.00,,CLR,0.00,VWS V14.00,2013-04-30 15:54:00,
2013-04-30 10:59:00,77.1,64.4,29.88,South,186,4.0,5.0,65,0.00,,CLR,0.00,VWS V14.00,2013-04-30 15:59:00,
2013-04-30 11:00:00,76.6,63.5,29.88,SSW,192,1.0,7.0,64,0.00,,CLR,0.00,VWS V14.00,2013-04-30 16:00:00,
2013-04-30 11:04:00,77.2,63.2,29.89,South,178,2.0,5.0,62,0.00,,CLR,0.00,VWS V14.00,2013-04-30 16:04:00,
2013-04-30 11:09:00,77.3,63.3,29.88,ESE,107,0.0,6.0,62,0.00,,CLR,0.00,VWS V14.00,2013-04-30 16:09:00,
2013-04-30 11:14:00,77.3,62.3,29.89,South,187,4.0,6.0,60,0.00,,CLR,0.00,VWS V14.00,2013-04-30 16:14:00,
2013-04-30 11:19:00,77.4,62.9,29.88,South,188,3.0,6.0,61,0.00,,CLR,0.00,VWS V14.00,2013-04-30 16:19:00,
2013-04-30 11:24:00,77.5,63.5,29.88,SW,223,2.0,5.0,62,0.00,,CLR,0.00,VWS V14.00,2013-04-30 16:24:00,
2013-04-30 11:29:00,77.7,63.7,29.88,South,173,2.0,5.0,62,0.00,,CLR,0.00,VWS V14.00,2013-04-30 16:29:00,
2013-04-30 11:30:00,77.5,63.9,29.88,South,176,2.0,6.0,63,0.00,,CLR,0.00,VWS V14.00,2013-04-30 16:30:00,
2013-04-30 11:34:00,78.3,65.1,29.88,South,170,4.0,5.0,64,0.00,,CLR,0.00,VWS V14.00,2013-04-30 16:34:00,
2013-04-30 11:39:00,78.4,63.8,29.88,South,169,1.0,5.0,61,0.00,,CLR,0.00,VWS V14.00,2013-04-30 16:39:00,
2013-04-30 11:44:00,78.6,64.0,29.88,ESE,113,2.0,7.0,61,0.00,,CLR,0.00,VWS V14.00,2013-04-30 16:44:00,
2013-04-30 11:49:00,78.8,63.3,29.88,SSE,164,0.0,7.0,59,0.00,,CLR,0.00,VWS V14.00,2013-04-30 16:49:00,
2013-04-30 11:54:00,79.2,63.7,29.88,SSE,164,4.0,6.0,59,0.00,,CLR,0.00,VWS V14.00,2013-04-30 16:54:00,
2013-04-30 11:59:00,79.5,62.5,29.87,South,184,4.0,6.0,56,0.00,,CLR,0.00,VWS V14.00,2013-04-30 16:59:00,
2013-04-30 12:00:00,79.0,64.9,29.88,SE,140,1.0,7.0,62,0.00,,CLR,0.00,VWS V14.00,2013-04-30 17:00:00,
2013-04-30 12:04:00,79.6,65.0,29.87,South,187,3.0,6.0,61,0.00,,CLR,0.00,VWS V14.00,2013-04-30 17:04:00,
2013-04-30 12:09:00,79.7,63.1,29.87,South,178,1.0,6.0,57,0.00,,CLR,0.00,VWS V14.00,2013-04-30 17:09:00,
2013-04-30 12:14:00,80.0,63.9,29.87,SSE,160,6.0,6.0,58,0.00,,CLR,0.00,VWS V14.00,2013-04-30 17:14:00,
2013-04-30 12:19:00,80.2,63.6,29.86,SSE,161,4.0,7.0,57,0.00,,CLR,0.00,VWS V14.00,2013-04-30 17:19:00,
2013-04-30 12:24:00,80.4,63.8,29.86,ESE,117,1.0,5.0,57,0.00,,CLR,0.00,VWS V14.00,2013-04-30 17:24:00,
2013-04-30 12:29:00,80.6,63.5,29.86,SE,126,1.0,6.0,56,0.00,,CLR,0.00,VWS V14.00,2013-04-30 17:29:00,
2013-04-30 12:30:00,80.3,62.7,29.86,SE,132,2.0,7.0,55,0.00,,CLR,0.00,VWS V14.00,2013-04-30 17:30:00,
2013-04-30 12:34:00,80.9,66.2,29.86,South,176,0.0,6.0,61,0.00,,CLR,0.00,VWS V14.00,2013-04-30 17:34:00,
2013-04-30 12:39:00,81.1,64.4,29.86,South,183,3.0,6.0,57,0.00,,CLR,0.00,VWS V14.00,2013-04-30 17:39:00,
2013-04-30 12:43:00,81.2,63.5,29.86,ESE,112,1.0,8.0,55,0.00,,CLR,0.00,VWS V14.00,2013-04-30 17:43:00,
2013-04-30 12:48:00,81.6,65.9,29.85,SSE,150,2.0,8.0,59,0.00,,CLR,0.00,VWS V14.00,2013-04-30 17:48:00,
2013-04-30 12:53:00,81.7,64.5,29.85,SSE,154,2.0,7.0,56,0.00,,CLR,0.00,VWS V14.00,2013-04-30 17:53:00,
2013-04-30 12:58:00,81.7,64.5,29.85,SSE,148,2.0,7.0,56,0.00,,CLR,0.00,VWS V14.00,2013-04-30 17:58:00,
2013-04-30 13:00:00,81.6,64.9,29.85,SSE,157,4.0,8.0,57,0.00,,CLR,0.00,VWS V14.00,2013-04-30 18:00:00,
2013-04-30 13:03:00,81.6,64.4,29.85,South,175,7.0,8.0,56,0.00,,CLR,0.00,VWS V14.00,2013-04-30 18:03:00,
2013-04-30 13:08:00,81.6,64.9,29.85,SSE,159,2.0,8.0,57,0.00,,CLR,0.00,VWS V14.00,2013-04-30 18:08:00,
2013-04-30 13:13:00,81.8,64.6,29.84,SE,133,1.0,8.0,56,0.00,,CLR,0.00,VWS V14.00,2013-04-30 18:13:00,
2013-04-30 13:18:00,82.0,65.3,29.84,SE,141,2.0,8.0,57,0.00,,CLR,0.00,VWS V14.00,2013-04-30 18:18:00,
2013-04-30 13:23:00,82.1,64.9,29.84,South,173,2.0,5.0,56,0.00,,CLR,0.00,VWS V14.00,2013-04-30 18:23:00,
2013-04-30 13:28:00,82.4,64.1,29.84,SSE,153,1.0,6.0,54,0.00,,CLR,0.00,VWS V14.00,2013-04-30 18:28:00,
2013-04-30 13:30:00,82.0,64.3,29.84,SSE,153,4.0,8.0,55,0.00,,CLR,0.00,VWS V14.00,2013-04-30 18:30:00,
2013-04-30 13:33:00,82.5,63.7,29.84,SSE,154,0.0,6.0,53,0.00,,CLR,0.00,VWS V14.00,2013-04-30 18:33:00,
2013-04-30 13:38:00,82.6,63.2,29.84,SSE,156,2.0,6.0,52,0.00,,CLR,0.00,VWS V14.00,2013-04-30 18:38:00,
2013-04-30 13:43:00,82.6,65.3,29.84,SSE,158,1.0,6.0,56,0.00,,CLR,0.00,VWS V14.00,2013-04-30 18:43:00,
2013-04-30 13:48:00,82.8,64.5,29.84,South,174,2.0,6.0,54,0.00,,CLR,0.00,VWS V14.00,2013-04-30 18:48:00,
2013-04-30 13:54:00,83.0,65.7,29.84,SSE,167,4.0,4.0,56,0.00,,CLR,0.00,VWS V14.00,2013-04-30 18:54:00,
2013-04-30 13:59:00,83.1,62.5,29.84,SSW,193,2.0,7.0,50,0.00,,CLR,0.00,VWS V14.00,2013-04-30 18:59:00,
2013-04-30 14:04:00,83.3,64.9,29.84,South,186,2.0,7.0,54,0.00,,CLR,0.00,VWS V14.00,2013-04-30 19:04:00,
2013-04-30 14:09:00,83.3,64.4,29.84,SE,131,2.0,7.0,53,0.00,,CLR,0.00,VWS V14.00,2013-04-30 19:09:00,
2013-04-30 14:14:00,83.5,64.0,29.84,SSE,161,2.0,7.0,52,0.00,,CLR,0.00,VWS V14.00,2013-04-30 19:14:00,
2013-04-30 14:19:00,83.5,65.1,29.84,SE,146,2.0,7.0,54,0.00,,CLR,0.00,VWS V14.00,2013-04-30 19:19:00,
2013-04-30 14:24:00,83.4,63.4,29.84,South,171,4.0,6.0,51,0.00,,CLR,0.00,VWS V14.00,2013-04-30 19:24:00,
2013-04-30 14:29:00,83.6,66.3,29.84,South,169,2.0,7.0,56,0.00,,CLR,0.00,VWS V14.00,2013-04-30 19:29:00,
2013-04-30 14:30:00,83.4,62.3,29.84,SSW,192,2.0,7.0,49,0.00,,CLR,0.00,VWS V14.00,2013-04-30 19:30:00,
2013-04-30 14:34:00,83.5,64.6,29.84,South,170,2.0,7.0,53,0.00,,CLR,0.00,VWS V14.00,2013-04-30 19:34:00,
2013-04-30 14:39:00,83.1,64.8,29.84,SSE,162,4.0,7.0,54,0.00,,SCT110,0.00,VWS V14.00,2013-04-30 19:39:00,
2013-04-30 14:44:00,83.2,63.2,29.84,South,184,2.0,7.0,51,0.00,,SCT110,0.00,VWS V14.00,2013-04-30 19:44:00,
2013-04-30 14:49:00,83.1,63.7,29.84,SSW,192,0.0,7.0,52,0.00,,SCT110,0.00,VWS V14.00,2013-04-30 19:49:00,
2013-04-30 14:54:00,82.6,64.8,29.84,South,182,2.0,3.0,55,0.00,,SCT110,0.00,VWS V14.00,2013-04-30 19:54:00,
2013-04-30 14:59:00,82.1,62.2,29.84,SSW,205,2.0,5.0,51,0.00,,SCT110,0.00,VWS V14.00,2013-04-30 19:59:00,
2013-04-30 15:00:00,82.9,65.6,29.84,SSW,192,2.0,7.0,56,0.00,,CLR,0.00,VWS V14.00,2013-04-30 20:00:00,
2013-04-30 15:04:00,81.9,62.6,29.84,South,183,3.0,6.0,52,0.00,,SCT110,0.00,VWS V14.00,2013-04-30 20:04:00,
2013-04-30 15:09:00,81.8,63.0,29.83,SSW,192,1.0,7.0,53,0.00,,SCT110,0.00,VWS V14.00,2013-04-30 20:09:00,
2013-04-30 15:14:00,81.7,63.5,29.83,South,175,1.0,7.0,54,0.00,,SCT110,0.00,VWS V14.00,2013-04-30 20:14:00,
2013-04-30 15:19:00,81.8,62.5,29.83,South,171,5.0,7.0,52,0.00,,SCT110,0.00,VWS V14.00,2013-04-30 20:19:00,
2013-04-30 15:24:00,81.9,63.6,29.83,SSW,206,2.0,5.0,54,0.00,,SCT070,0.00,VWS V14.00,2013-04-30 20:24:00,
2013-04-30 15:29:00,81.7,62.4,29.83,South,172,2.0,5.0,52,0.00,,SCT070,0.00,VWS V14.00,2013-04-30 20:29:00,
2013-04-30 15:30:00,81.9,64.7,29.83,South,171,1.0,7.0,56,0.00,,CLR,0.00,VWS V14.00,2013-04-30 20:30:00,
2013-04-30 15:34:00,81.9,64.2,29.83,SSE,168,2.0,6.0,55,0.00,,SCT070,0.00,VWS V14.00,2013-04-30 20:34:00,
2013-04-30 15:39:00,81.8,65.1,29.83,South,183,2.0,7.0,57,0.00,,SCT060,0.00,VWS V14.00,2013-04-30 20:39:00,
2013-04-30 15:44:00,82.0,61.5,29.83,South,190,3.0,7.0,50,0.00,,SCT060,0.00,VWS V14.00,2013-04-30 20:44:00,
2013-04-30 15:49:00,82.4,63.6,29.83,South,182,4.0,7.0,53,0.00,,SCT060,0.00,VWS V14.00,2013-04-30 20:49:00,
2013-04-30 15:54:00,82.4,64.1,29.83,SSE,163,6.0,7.0,54,0.00,,SCT060,0.00,VWS V14.00,2013-04-30 20:54:00,
2013-04-30 15:59:00,81.9,63.1,29.83,SE,129,2.0,7.0,53,0.00,,SCT060,0.00,VWS V14.00,2013-04-30 20:59:00,
2013-04-30 16:00:00,82.4,61.9,29.83,East,85,5.0,7.0,50,0.00,,CLR,0.00,VWS V14.00,2013-04-30 21:00:00,
2013-04-30 16:04:00,81.8,63.0,29.83,South,176,2.0,7.0,53,0.00,,SCT060,0.00,VWS V14.00,2013-04-30 21:04:00,
2013-04-30 16:09:00,81.1,62.4,29.83,South,190,3.0,10.0,53,0.00,,SCT060,0.00,VWS V14.00,2013-04-30 21:09:00,
2013-04-30 16:14:00,81.0,62.3,29.83,South,175,0.0,10.0,53,0.00,,SCT060,0.00,VWS V14.00,2013-04-30 21:14:00,
2013-04-30 16:19:00,81.4,63.2,29.84,South,187,2.0,10.0,54,0.00,,CLR,0.00,VWS V14.00,2013-04-30 21:19:00,
2013-04-30 16:24:00,82.1,61.6,29.83,SSE,161,5.0,8.0,50,0.00,,CLR,0.00,VWS V14.00,2013-04-30 21:24:00,
2013-04-30 16:29:00,82.6,63.2,29.84,South,182,3.0,8.0,52,0.00,,CLR,0.00,VWS V14.00,2013-04-30 21:29:00,
2013-04-30 16:30:00,81.7,62.4,29.83,SSE,150,4.0,10.0,52,0.00,,CLR,0.00,VWS V14.00,2013-04-30 21:30:00,
2013-04-30 16:34:00,83.0,63.0,29.84,South,188,2.0,8.0,51,0.00,,CLR,0.00,VWS V14.00,2013-04-30 21:34:00,
2013-04-30 16:39:00,83.1,62.5,29.84,South,169,4.0,8.0,50,0.00,,SCT065,0.00,VWS V14.00,2013-04-30 21:39:00,
2013-04-30 16:43:00,82.9,61.8,29.84,SSW,192,3.0,8.0,49,0.00,,SCT065,0.00,VWS V14.00,2013-04-30 21:43:00,
2013-04-30 16:48:00,82.6,62.1,29.84,SSW,193,2.0,8.0,50,0.00,,SCT065,0.00,VWS V14.00,2013-04-30 21:48:00,
2013-04-30 16:53:00,82.6,61.5,29.84,South,188,4.0,9.0,49,0.00,,SCT065,0.00,VWS V14.00,2013-04-30 21:53:00,
2013-04-30 16:58:00,82.4,60.8,29.84,South,183,4.0,9.0,48,0.00,,SCT065,0.00,VWS V14.00,2013-04-30 21:58:00,
2013-04-30 17:00:00,82.6,62.1,29.84,SSE,167,2.0,8.0,50,0.00,,CLR,0.00,VWS V14.00,2013-04-30 22:00:00,
2013-04-30 17:03:00,81.8,61.9,29.84,South,183,3.0,9.0,51,0.00,,SCT065,0.00,VWS V14.00,2013-04-30 22:03:00,
2013-04-30 17:08:00,81.8,63.0,29.84,SSW,196,6.0,9.0,53,0.00,,SCT065,0.00,VWS V14.00,2013-04-30 22:08:00,
2013-04-30 17:13:00,81.9,62.0,29.84,South,180,1.0,9.0,51,0.00,,SCT065,0.00,VWS V14.00,2013-04-30 22:13:00,
2013-04-30 17:18:00,82.0,61.5,29.84,South,180,2.0,9.0,50,0.00,,SCT065,0.00,VWS V14.00,2013-04-30 22:18:00,
2013-04-30 17:23:00,81.9,60.9,29.84,SSE,167,2.0,4.0,49,0.00,,SCT065,0.00,VWS V14.00,2013-04-30 22:23:00,
2013-04-30 17:28:00,81.8,60.8,29.84,SSE,160,2.0,8.0,49,0.00,,SCT065,0.00,VWS V14.00,2013-04-30 22:28:00,
2013-04-30 17:30:00,81.9,60.9,29.84,SSE,167,2.0,9.0,49,0.00,,CLR,0.00,VWS V14.00,2013-04-30 22:30:00,
2013-04-30 17:33:00,81.7,62.4,29.84,SSE,159,5.0,8.0,52,0.00,,SCT065,0.00,VWS V14.00,2013-04-30 22:33:00,
2013-04-30 17:38:00,81.5,61.7,29.84,SSE,167,5.0,8.0,51,0.00,,CLR,0.00,VWS V14.00,2013-04-30 22:38:00,
2013-04-30 17:43:00,81.3,61.5,29.84,South,174,4.0,8.0,51,0.00,,CLR,0.00,VWS V14.00,2013-04-30 22:43:00,
2013-04-30 17:48:00,80.9,62.2,29.84,SSE,166,2.0,8.0,53,0.00,,CLR,0.00,VWS V14.00,2013-04-30 22:48:00,
2013-04-30 17:53:00,80.7,60.9,29.84,ESE,105,2.0,6.0,51,0.00,,CLR,0.00,VWS V14.00,2013-04-30 22:53:00,
2013-04-30 17:58:00,80.5,62.3,29.84,ESE,114,2.0,6.0,54,0.00,,CLR,0.00,VWS V14.00,2013-04-30 22:58:00,
2013-04-30 18:00:00,80.8,61.5,29.84,South,171,2.0,8.0,52,0.00,,CLR,0.00,VWS V14.00,2013-04-30 23:00:00,
2013-04-30 18:03:00,80.3,60.5,29.84,South,171,2.0,6.0,51,0.00,,CLR,0.00,VWS V14.00,2013-04-30 23:03:00,
2013-04-30 18:08:00,80.2,60.5,29.84,South,172,2.0,6.0,51,0.00,,CLR,0.00,VWS V14.00,2013-04-30 23:08:00,
2013-04-30 18:13:00,80.0,60.8,29.84,South,188,3.0,6.0,52,0.00,,CLR,0.00,VWS V14.00,2013-04-30 23:13:00,
2013-04-30 18:18:00,79.9,61.3,29.84,SE,128,1.0,6.0,53,0.00,,CLR,0.00,VWS V14.00,2013-04-30 23:18:00,
2013-04-30 18:23:00,79.8,62.2,29.84,SE,126,2.0,4.0,55,0.00,,CLR,0.00,VWS V14.00,2013-04-30 23:23:00,
2013-04-30 18:28:00,79.7,61.6,29.84,SE,127,1.0,4.0,54,0.00,,CLR,0.00,VWS V14.00,2013-04-30 23:28:00,
2013-04-30 18:30:00,79.9,61.3,29.84,SE,126,4.0,6.0,53,0.00,,CLR,0.00,VWS V14.00,2013-04-30 23:30:00,
2013-04-30 18:33:00,79.4,61.3,29.84,SE,127,1.0,4.0,54,0.00,,CLR,0.00,VWS V14.00,2013-04-30 23:33:00,
2013-04-30 18:38:00,79.2,61.7,29.85,SSE,154,1.0,4.0,55,0.00,,CLR,0.00,VWS V14.00,2013-04-30 23:38:00,
2013-04-30 18:43:00,79.1,60.5,29.85,SSE,154,0.0,4.0,53,0.00,,CLR,0.00,VWS V14.00,2013-04-30 23:43:00,
2013-04-30 18:48:00,78.8,60.8,29.85,SSE,154,0.0,4.0,54,0.00,,CLR,0.00,VWS V14.00,2013-04-30 23:48:00,
2013-04-30 18:53:00,78.8,61.3,29.85,SSE,154,2.0,2.0,55,0.00,,CLR,0.00,VWS V14.00,2013-04-30 23:53:00,
2013-04-30 18:58:00,78.4,60.9,29.85,SSE,154,2.0,2.0,55,0.00,,CLR,0.00,VWS V14.00,2013-04-30 23:58:00,
2013-04-30 19:00:00,78.8,60.8,29.85,SSE,154,0.0,4.0,54,0.00,,CLR,0.00,VWS V14.00,2013-05-01 00:00:00,
2013-04-30 19:03:00,78.1,60.1,29.85,SSE,154,0.0,2.0,54,0.00,,CLR,0.00,VWS V14.00,2013-05-01 00:03:00,
2013-04-30 19:08:00,77.6,60.2,29.86,SSE,154,0.0,2.0,55,0.00,,CLR,0.00,VWS V14.00,2013-05-01 00:08:00,
2013-04-30 19:13:00,77.2,60.3,29.86,SSE,154,0.0,2.0,56,0.00,,CLR,0.00,VWS V14.00,2013-05-01 00:13:00,
2013-04-30 19:18:00,76.8,59.9,29.86,SSE,154,0.0,2.0,56,0.00,,CLR,0.00,VWS V14.00,2013-05-01 00:18:00,
2013-04-30 19:23:00,75.9,59.1,29.86,SSE,154,0.0,0.0,56,0.00,,CLR,0.00,VWS V14.00,2013-05-01 00:23:00,
2013-04-30 19:28:00,74.9,59.1,29.86,SSE,154,0.0,0.0,58,0.00,,CLR,0.00,VWS V14.00,2013-05-01 00:28:00,
2013-04-30 19:30:00,76.3,59.5,29.86,SSE,154,0.0,2.0,56,0.00,,CLR,0.00,VWS V14.00,2013-05-01 00:30:00,
2013-04-30 19:33:00,74.0,58.8,29.86,SSE,154,0.0,1.0,59,0.00,,CLR,0.00,VWS V14.00,2013-05-01 00:33:00,
2013-04-30 19:38:00,73.3,58.6,29.86,SSE,154,0.0,1.0,60,0.00,,CLR,0.00,VWS V14.00,2013-05-01 00:38:00,
2013-04-30 19:43:00,72.9,58.7,29.86,SSE,154,0.0,1.0,61,0.00,,CLR,0.00,VWS V14.00,2013-05-01 00:43:00,
2013-04-30 19:48:00,72.6,58.4,29.87,SSE,154,0.0,1.0,61,0.00,,CLR,0.00,VWS V14.00,2013-05-01 00:48:00,
2013-04-30 19:53:00,72.0,58.3,29.87,SSE,154,0.0,0.0,62,0.00,,CLR,0.00,VWS V14.00,2013-05-01 00:53:00,
2013-04-30 19:58:00,71.4,58.6,29.87,SSE,154,0.0,0.0,64,0.00,,CLR,0.00,VWS V14.00,2013-05-01 00:58:00,
2013-04-30 20:00:00,72.2,58.5,29.87,SSE,154,0.0,1.0,62,0.00,,CLR,0.00,VWS V14.00,2013-05-01 01:00:00,
2013-04-30 20:03:00,70.9,58.1,29.87,SSE,154,0.0,0.0,64,0.00,,CLR,0.00,VWS V14.00,2013-05-01 01:03:00,
2013-04-30 20:08:00,70.6,58.3,29.88,SSE,154,0.0,0.0,65,0.00,,CLR,0.00,VWS V14.00,2013-05-01 01:08:00,
2013-04-30 20:13:00,70.2,58.3,29.87,SSE,154,0.0,0.0,66,0.00,,CLR,0.00,VWS V14.00,2013-05-01 01:13:00,
2013-04-30 20:18:00,69.8,58.4,29.87,SSE,154,0.0,0.0,67,0.00,,CLR,0.00,VWS V14.00,2013-05-01 01:18:00,
2013-04-30 20:23:00,69.3,58.3,29.88,SSE,154,0.0,0.0,68,0.00,,CLR,0.00,VWS V14.00,2013-05-01 01:23:00,
2013-04-30 20:28:00,68.8,57.8,29.88,SSE,154,0.0,0.0,68,0.00,,CLR,0.00,VWS V14.00,2013-05-01 01:28:00,
2013-04-30 20:30:00,69.5,58.5,29.87,SSE,154,0.0,0.0,68,0.00,,CLR,0.00,VWS V14.00,2013-05-01 01:30:00,
2013-04-30 20:33:00,68.2,58.0,29.88,SSE,154,0.0,0.0,70,0.00,,CLR,0.00,VWS V14.00,2013-05-01 01:33:00,
2013-04-30 20:38:00,67.9,58.2,29.88,SSE,154,0.0,0.0,71,0.00,,CLR,0.00,VWS V14.00,2013-05-01 01:38:00,
2013-04-30 20:43:00,67.6,58.3,29.88,SSE,154,0.0,0.0,72,0.00,,CLR,0.00,VWS V14.00,2013-05-01 01:43:00,
2013-04-30 20:48:00,67.2,58.3,29.89,SSE,154,0.0,0.0,73,0.00,,CLR,0.00,VWS V14.00,2013-05-01 01:48:00,
2013-04-30 20:53:00,66.8,58.3,29.89,SSE,154,0.0,0.0,74,0.00,,CLR,0.00,VWS V14.00,2013-05-01 01:53:00,
2013-04-30 20:58:00,66.5,59.1,29.89,SSE,154,0.0,0.0,77,0.00,,CLR,0.00,VWS V14.00,2013-05-01 01:58:00,
2013-04-30 21:00:00,67.0,58.1,29.89,SSE,154,0.0,0.0,73,0.00,,CLR,0.00,VWS V14.00,2013-05-01 02:00:00,
2013-04-30 21:03:00,66.0,59.3,29.89,SSE,154,0.0,0.0,79,0.00,,CLR,0.00,VWS V14.00,2013-05-01 02:03:00,
2013-04-30 21:08:00,65.5,59.2,29.90,SSE,154,0.0,0.0,80,0.00,,CLR,0.00,VWS V14.00,2013-05-01 02:08:00,
2013-04-30 21:13:00,65.1,58.8,29.90,SSE,154,0.0,0.0,80,0.00,,CLR,0.00,VWS V14.00,2013-05-01 02:13:00,
2013-04-30 21:18:00,64.7,58.0,29.90,SSE,154,0.0,0.0,79,0.00,,CLR,0.00,VWS V14.00,2013-05-01 02:18:00,
2013-04-30 21:23:00,64.4,57.8,29.90,SSE,154,0.0,0.0,79,0.00,,CLR,0.00,VWS V14.00,2013-05-01 02:23:00,
2013-04-30 21:28:00,64.2,58.3,29.90,SSE,154,0.0,0.0,81,0.00,,CLR,0.00,VWS V14.00,2013-05-01 02:28:00,
2013-04-30 21:30:00,64.5,57.8,29.90,SSE,154,0.0,0.0,79,0.00,,CLR,0.00,VWS V14.00,2013-05-01 02:30:00,
2013-04-30 21:33:00,64.0,58.4,29.91,SSE,154,0.0,0.0,82,0.00,,CLR,0.00,VWS V14.00,2013-05-01 02:33:00,
2013-04-30 21:38:00,63.7,58.8,29.91,SSE,154,0.0,1.0,84,0.00,,CLR,0.00,VWS V14.00,2013-05-01 02:38:00,
2013-04-30 21:43:00,63.4,58.8,29.91,SSE,154,0.0,1.0,85,0.00,,CLR,0.00,VWS V14.00,2013-05-01 02:43:00,
2013-04-30 21:48:00,63.1,58.5,29.91,SSE,154,0.0,1.0,85,0.00,,CLR,0.00,VWS V14.00,2013-05-01 02:48:00,
2013-04-30 21:53:00,62.7,58.1,29.91,SSE,154,0.0,0.0,85,0.00,,CLR,0.00,VWS V14.00,2013-05-01 02:53:00,
2013-04-30 21:58:00,62.5,58.3,29.91,SSE,154,0.0,0.0,86,0.00,,CLR,0.00,VWS V14.00,2013-05-01 02:58:00,
2013-04-30 22:00:00,62.8,58.2,29.91,SSE,154,0.0,1.0,85,0.00,,CLR,0.00,VWS V14.00,2013-05-01 03:00:00,
2013-04-30 22:03:00,62.2,57.6,29.92,SSE,154,0.0,0.0,85,0.00,,CLR,0.00,VWS V14.00,2013-05-01 03:03:00,
2013-04-30 22:08:00,62.1,57.9,29.91,SSE,154,0.0,0.0,86,0.00,,CLR,0.00,VWS V14.00,2013-05-01 03:08:00,
2013-04-30 22:13:00,62.0,57.8,29.92,SSE,154,0.0,0.0,86,0.00,,CLR,0.00,VWS V14.00,2013-05-01 03:13:00,
2013-04-30 22:18:00,61.9,57.3,29.92,SSE,154,0.0,0.0,85,0.00,,CLR,0.00,VWS V14.00,2013-05-01 03:18:00,
2013-04-30 22:23:00,61.9,57.7,29.92,SSE,154,0.0,0.0,86,0.00,,CLR,0.00,VWS V14.00,2013-05-01 03:23:00,
2013-04-30 22:28:00,61.9,58.0,29.92,SSE,154,0.0,0.0,87,0.00,,CLR,0.00,VWS V14.00,2013-05-01 03:28:00,
2013-04-30 22:30:00,61.9,57.3,29.92,SSE,154,0.0,1.0,85,0.00,,CLR,0.00,VWS V14.00,2013-05-01 03:30:00,
2013-04-30 22:33:00,61.7,57.8,29.92,SSE,154,0.0,0.0,87,0.00,,CLR,0.00,VWS V14.00,2013-05-01 03:33:00,
2013-04-30 22:38:00,61.5,57.6,29.92,SSE,154,0.0,0.0,87,0.00,,CLR,0.00,VWS V14.00,2013-05-01 03:38:00,
2013-04-30 22:43:00,61.2,57.3,29.92,SSE,154,0.0,0.0,87,0.00,,CLR,0.00,VWS V14.00,2013-05-01 03:43:00,
2013-04-30 22:48:00,61.0,57.1,29.92,SSE,154,0.0,0.0,87,0.00,,CLR,0.00,VWS V14.00,2013-05-01 03:48:00,
2013-04-30 22:53:00,60.8,56.9,29.92,SSE,154,0.0,0.0,87,0.00,,CLR,0.00,VWS V14.00,2013-05-01 03:53:00,
2013-04-30 22:58:00,60.7,56.5,29.92,SSE,154,0.0,0.0,86,0.00,,CLR,0.00,VWS V14.00,2013-05-01 03:58:00,
2013-04-30 23:00:00,60.9,57.0,29.92,SSE,154,0.0,0.0,87,0.00,,CLR,0.00,VWS V14.00,2013-05-01 04:00:00,
2013-04-30 23:01:00,60.8,56.9,29.92,SSE,154,0.0,0.0,87,0.00,,CLR,0.00,VWS V14.00,2013-05-01 04:01:00,
2013-04-30 23:06:00,60.8,56.9,29.92,SSE,154,0.0,0.0,87,0.00,,CLR,0.00,VWS V14.00,2013-05-01 04:06:00,
2013-04-30 23:11:00,60.8,57.2,29.92,SSE,154,0.0,1.0,88,0.00,,CLR,0.00,VWS V14.00,2013-05-01 04:11:00,
2013-04-30 23:16:00,60.7,57.1,29.92,SSE,154,0.0,1.0,88,0.00,,CLR,0.00,VWS V14.00,2013-05-01 04:16:00,
2013-04-30 23:21:00,60.6,57.0,29.92,SSE,154,1.0,1.0,88,0.00,,CLR,0.00,VWS V14.00,2013-05-01 04:21:00,
2013-04-30 23:26:00,60.4,56.8,29.92,SSE,154,0.0,2.0,88,0.00,,CLR,0.00,VWS V14.00,2013-05-01 04:26:00,
2013-04-30 23:30:00,60.5,56.9,29.92,SSE,154,0.0,1.0,88,0.00,,CLR,0.00,VWS V14.00,2013-05-01 04:30:00,
2013-04-30 23:31:00,60.4,56.8,29.92,SSE,154,0.0,2.0,88,0.00,,CLR,0.00,VWS V14.00,2013-05-01 04:31:00,
2013-04-30 23:36:00,60.3,56.7,29.92,SSE,154,0.0,2.0,88,0.00,,CLR,0.00,VWS V14.00,2013-05-01 04:36:00,
2013-04-30 23:41:00,60.3,56.4,29.92,SSE,154,0.0,2.0,87,0.00,,CLR,0.00,VWS V14.00,2013-05-01 04:41:00,
2013-04-30 23:46:00,60.2,56.3,29.92,SSE,154,0.0,2.0,87,0.00,,CLR,0.00,VWS V14.00,2013-05-01 04:46:00,
2013-04-30 23:56:00,60.1,56.2,29.92,SSE,154,0.0,0.0,87,0.00,,CLR,0.00,VWS V14.00,2013-05-01 04:56:00,